Location: Seale
(32.2974°N, 85.1688°W)
Time: 22:37:44
(UTC+00:00)

X-37B - Pass Details

Date: 31 January 2021
Orbit: 383 x 391 km, 45.0° (Epoch: 10 February)

Event Time Altitude Azimuth Distance (km) Brightness Sun altitude
Rises 01:11:35 0° 303° (WNW) 2,272 5.2 -25.3°
Reaches altitude 10° 01:13:39 10° 301° (WNW) 1,416 4.1 -25.7°
Enters shadow 01:14:48 20° 298° (WNW) 960 3.1 -26.0°
